DW3733 Luzzi (cosenza) IT current weather conditions

sailwx.info

Wind from 266

Air temperature 7.8° C
Dewpoint 7.3° C

Last reported at 2017-Oct-19 05:08 UTC.
Time now 2017-Oct-19 05:51 UTC

Location: N 39°27' E 016°16'.
View on Google Maps.

See reports from other nearby stations

  
Tides and Currents Weather Stations Pressure Air Temp Water Temp Dewpoint Dewpoint Depression Visibility Wind Speed Wind Dir Waves Ship Positions
date/time (UTC)wind fromknots sea level pressurealtimeterstation pressurevisibilityair tempwater tempwave heightnotes
2017-Oct-19 05:08 266 7.8
2017-Oct-19 05:03 135 0 gusting 1 7.8
2017-Oct-19 04:58 090 0 gusting 2 7.8
2017-Oct-19 04:53 090 0 gusting 0 7.8
2017-Oct-19 04:48 090 0 gusting 1 7.8
2017-Oct-19 04:43 051 1 gusting 2 7.8
2017-Oct-19 04:38 180 0 gusting 2 7.8
2017-Oct-19 04:33 135 1 gusting 2 7.8
2017-Oct-19 04:28 135 1 gusting 2 7.8
2017-Oct-19 04:23 135 0 gusting 2 7.8
2017-Oct-19 04:18 135 0 gusting 2 7.8
2017-Oct-19 04:13 135 1 gusting 2 7.8
2017-Oct-19 04:08 131 1 gusting 2 7.8
2017-Oct-19 04:03 090 1 gusting 2 8.3
2017-Oct-19 03:58 111 0 gusting 1 7.8
2017-Oct-19 03:53 135 0 gusting 2 8.3
2017-Oct-19 03:48 090 0 gusting 2 8.3
2017-Oct-19 03:43 270 0 gusting 1 8.3
2017-Oct-19 03:38 090 0 gusting 1 8.3
2017-Oct-19 03:33 090 0 gusting 1 8.9
2017-Oct-19 03:28 090 0 gusting 2 8.3
2017-Oct-19 03:23 225 0 gusting 0 8.9
2017-Oct-19 03:18 090 8.9
2017-Oct-19 03:13 130 0 gusting 2 8.9
2017-Oct-19 03:08 090 1 gusting 2 8.9
2017-Oct-19 03:03 270 9.4
2017-Oct-19 02:58 090 0 gusting 1 9.4
2017-Oct-19 02:53 090 0 gusting 0 9.4
2017-Oct-19 02:48 090 0 gusting 0 9.4
2017-Oct-19 02:43 090 9.4
2017-Oct-19 02:38 090 8.9
2017-Oct-19 02:33 090 0 gusting 1 8.9
2017-Oct-19 02:28 090 0 gusting 2 8.9
2017-Oct-19 02:23 135 1 gusting 2 9.4
2017-Oct-19 02:18 135 1 gusting 2 9.4
2017-Oct-19 02:13 045 0 gusting 0 9.4
2017-Oct-19 02:08 135 0 gusting 1 9.4
2017-Oct-19 02:03 090 0 gusting 2 10.0
2017-Oct-19 01:58 131 1 gusting 2 10.0
2017-Oct-19 01:53 090 0 gusting 1 10.0
2017-Oct-19 01:48 265 10.0
2017-Oct-19 01:43 135 0 gusting 1 10.0
2017-Oct-19 01:38 135 0 gusting 1 10.0
2017-Oct-19 01:33 135 0 gusting 2 10.0
2017-Oct-19 01:28 135 1 gusting 2 10.6
2017-Oct-19 01:23 133 0 gusting 1 11.1
2017-Oct-19 01:18 315 11.1
2017-Oct-19 01:13 315 11.1
2017-Oct-19 01:08 315 0 gusting 0 11.1
2017-Oct-19 01:03 090 0 gusting 0 11.1
2017-Oct-19 00:58 270 11.1
2017-Oct-19 00:53 135 11.1
2017-Oct-19 00:48 135 0 gusting 1 11.1
2017-Oct-19 00:43 135 0 gusting 2 10.6
2017-Oct-19 00:38 129 1 gusting 2 10.6
2017-Oct-19 00:33 180 0 gusting 1 10.6
2017-Oct-19 00:28 135 0 gusting 1 10.6
2017-Oct-19 00:23 220 11.1
2017-Oct-19 00:18 090 0 gusting 2 11.1
2017-Oct-19 00:13 135 0 gusting 1 11.1
2017-Oct-19 00:08 135 0 gusting 1 11.1
2017-Oct-19 00:03 135 0 gusting 1 11.1
2017-Oct-18 23:58 153 0 gusting 2 11.1
2017-Oct-18 23:53 135 1 gusting 2 11.1
2017-Oct-18 23:48 087 0 gusting 2 11.7
2017-Oct-18 23:43 090 1 gusting 2 12.2
2017-Oct-18 23:38 270 12.2
2017-Oct-18 23:33 270 12.2
2017-Oct-18 23:28 187 0 gusting 1 12.2
2017-Oct-18 23:23 133 0 gusting 1 12.2
2017-Oct-18 23:18 315 12.2
2017-Oct-18 23:13 135 0 gusting 1 12.2
2017-Oct-18 23:08 139 0 gusting 1 12.2
2017-Oct-18 23:03 315 0 gusting 2 12.2
2017-Oct-18 22:58 090 0 gusting 2 12.2
2017-Oct-18 22:53 135 0 gusting 2 12.2
2017-Oct-18 22:48 135 0 gusting 1 12.2
2017-Oct-18 22:43 135 0 gusting 1 12.2
2017-Oct-18 22:38 131 0 gusting 2 12.2
2017-Oct-18 22:33 132 2 gusting 2 12.2
2017-Oct-18 22:28 135 1 gusting 2 12.2
2017-Oct-18 22:23 076 2 gusting 2 12.8
2017-Oct-18 22:18 090 1 gusting 2 12.8
2017-Oct-18 22:13 356 12.8
2017-Oct-18 22:08 135 0 gusting 2 12.8
2017-Oct-18 22:03 135 1 gusting 2 12.8
2017-Oct-18 21:58 090 2 gusting 2 12.8
2017-Oct-18 21:53 087 1 gusting 2 12.8
2017-Oct-18 21:48 099 0 gusting 2 12.8
2017-Oct-18 21:43 094 2 gusting 2 12.8
2017-Oct-18 21:38 090 1 gusting 2 13.3
2017-Oct-18 21:33 128 0 gusting 2 13.3
2017-Oct-18 21:28 132 1 gusting 2 13.3
2017-Oct-18 21:23 135 0 gusting 2 13.3
2017-Oct-18 21:18 090 0 gusting 1 13.3
2017-Oct-18 21:13 223 0 gusting 2 13.3
2017-Oct-18 21:08 090 1 gusting 2 13.3
2017-Oct-18 21:03 090 1 gusting 2 13.3
2017-Oct-18 20:58 094 0 gusting 2 13.9
2017-Oct-18 20:53 090 1 gusting 2 13.9
2017-Oct-18 20:48 086 0 gusting 2 13.9
2017-Oct-18 20:43 132 2 gusting 2 13.9
2017-Oct-18 20:38 126 1 gusting 2 13.3
2017-Oct-18 20:33 129 1 gusting 2 13.3
2017-Oct-18 20:28 131 1 gusting 2 13.3
2017-Oct-18 20:23 090 1 gusting 2 13.9
2017-Oct-18 20:18 090 1 gusting 2 13.9
2017-Oct-18 20:13 090 1 gusting 2 13.9
2017-Oct-18 20:08 090 1 gusting 2 13.9
2017-Oct-18 20:03 090 1 gusting 2 14.4
2017-Oct-18 19:58 135 1 gusting 2 14.4
2017-Oct-18 19:53 131 0 gusting 2 14.4
2017-Oct-18 19:48 084 0 gusting 2 14.4
2017-Oct-18 19:43 127 1 gusting 2 14.4
2017-Oct-18 19:38 090 1 gusting 2 15.0
2017-Oct-18 19:33 135 1 gusting 2 15.6
2017-Oct-18 19:28 095 0 gusting 1 15.6
2017-Oct-18 19:23 092 0 gusting 1 16.1
2017-Oct-18 19:18 320 0 gusting 1 16.1
2017-Oct-18 19:13 090 0 gusting 1 16.1
2017-Oct-18 19:08 353 0 gusting 1 16.1
2017-Oct-18 19:03 010 0 gusting 2 16.1
2017-Oct-18 18:58 090 0 gusting 2 16.1
2017-Oct-18 18:53 135 0 gusting 1 16.1
2017-Oct-18 18:48 005 0 gusting 2 16.1
2017-Oct-18 18:43 090 1 gusting 2 16.1
2017-Oct-18 18:38 131 0 gusting 2 16.7
2017-Oct-18 18:33 126 0 gusting 1 16.7
2017-Oct-18 18:28 099 0 gusting 2 16.7
2017-Oct-18 18:23 132 1 gusting 2 16.7
2017-Oct-18 18:18 097 1 gusting 2 16.7
2017-Oct-18 18:13 090 1 gusting 2 16.7
2017-Oct-18 18:08 090 2 gusting 2 16.7
2017-Oct-18 18:03 090 1 gusting 2 16.7
2017-Oct-18 17:58 090 1 gusting 2 16.7
2017-Oct-18 17:53 088 0 gusting 2 16.7
2017-Oct-18 17:48 090 1 gusting 2 17.2
2017-Oct-18 17:43 090 1 gusting 2 17.8
2017-Oct-18 17:38 092 0 gusting 1 17.8
2017-Oct-18 17:33 18.3
2017-Oct-18 17:28 039 18.3
2017-Oct-18 17:23 267 0 gusting 0 18.3
2017-Oct-18 17:18 315 0 gusting 1 18.3
2017-Oct-18 17:13 090 0 gusting 2 18.3
2017-Oct-18 17:08 090 0 gusting 2 18.3
2017-Oct-18 17:03 090 1 gusting 2 19.4
2017-Oct-18 16:58 135 1 gusting 2 20.0
2017-Oct-18 16:53 009 0 gusting 2 20.6
2017-Oct-18 16:48 090 0 gusting 0 21.1
2017-Oct-18 16:43 315 0 gusting 1 21.7
2017-Oct-18 16:38 315 0 gusting 0 22.2
2017-Oct-18 16:33 274 22.2
2017-Oct-18 16:28 276 0 gusting 1 22.2
2017-Oct-18 16:23 312 0 gusting 2 22.8
2017-Oct-18 16:18 315 1 gusting 2 22.8
2017-Oct-18 16:13 357 1 gusting 2 22.8
2017-Oct-18 16:08 049 0 gusting 4 22.8
2017-Oct-18 16:03 286 0 gusting 2 23.3
2017-Oct-18 15:58 275 0 gusting 2 23.3
2017-Oct-18 15:53 319 0 gusting 4 23.3
2017-Oct-18 15:48 354 1 gusting 4 23.3
2017-Oct-18 15:43 23.9
2017-Oct-18 15:38 318 1 gusting 6 23.9
2017-Oct-18 15:33 132 2 gusting 4 23.9
2017-Oct-18 15:28 323 2 gusting 6 24.4
2017-Oct-18 15:23 305 2 gusting 5 24.4
2017-Oct-18 15:18 199 1 gusting 6 24.4
2017-Oct-18 15:13 25.0
2017-Oct-18 15:08 351 2 gusting 5 25.0
2017-Oct-18 15:03 008 1 gusting 5 25.0
2017-Oct-18 14:58 003 2 gusting 5 25.6
2017-Oct-18 14:53 003 2 gusting 6 25.6
2017-Oct-18 14:48 25.6
2017-Oct-18 14:43 041 2 gusting 6 25.6
2017-Oct-18 14:38 011 2 gusting 5 25.6
2017-Oct-18 14:33 26.1
2017-Oct-18 14:28 26.1
2017-Oct-18 14:23 090 2 gusting 6 26.1
2017-Oct-18 14:18 085 2 gusting 6 26.1
2017-Oct-18 14:13 344 1 gusting 6 26.7
2017-Oct-18 14:08 358 2 gusting 6 26.7
2017-Oct-18 14:03 021 1 gusting 6 26.7
2017-Oct-18 13:58 086 2 gusting 6 27.2
2017-Oct-18 13:53 006 1 gusting 6 27.2
2017-Oct-18 13:48 128 3 gusting 5 27.2
2017-Oct-18 13:43 341 2 gusting 5 27.8
2017-Oct-18 13:38 27.8
2017-Oct-18 13:33 314 1 gusting 5 27.8
2017-Oct-18 13:28 178 0 gusting 2 27.8
2017-Oct-18 13:23 261 0 gusting 4 27.8
2017-Oct-18 13:18 313 0 gusting 2 27.8
2017-Oct-18 13:08 135 0 gusting 2 27.8
2017-Oct-18 13:03 324 2 gusting 2 27.8
2017-Oct-18 12:58 251 0 gusting 4 27.2
2017-Oct-18 12:53 318 1 gusting 4 27.8
2017-Oct-18 12:48 312 0 gusting 2 27.2
2017-Oct-18 12:43 323 1 gusting 4 27.2
2017-Oct-18 12:38 270 0 gusting 6 27.2
2017-Oct-18 12:33 27.2
2017-Oct-18 12:28 225 27.2
2017-Oct-18 12:23 315 0 gusting 4 27.2
2017-Oct-18 12:18 320 0 gusting 5 27.2
2017-Oct-18 12:13 006 1 gusting 5 27.2
2017-Oct-18 12:08 27.2
2017-Oct-18 12:03 045 2 gusting 5 27.2
2017-Oct-18 11:58 039 26.7
2017-Oct-18 11:53 330 1 gusting 4 26.7
2017-Oct-18 11:48 045 0 gusting 5 26.7
2017-Oct-18 11:43 26.7
2017-Oct-18 11:38 043 1 gusting 4 26.7
2017-Oct-18 11:33 328 2 gusting 5 27.2
2017-Oct-18 11:28 316 1 gusting 2 26.7
2017-Oct-18 11:23 135 0 gusting 4 26.7
2017-Oct-18 11:18 279 1 gusting 5 27.2
2017-Oct-18 11:13 090 0 gusting 4 27.2
2017-Oct-18 11:08 004 0 gusting 2 27.2
2017-Oct-18 11:03 227 0 gusting 2 26.7
2017-Oct-18 10:58 180 1 gusting 2 26.7
2017-Oct-18 10:53 358 1 gusting 2 26.1
2017-Oct-18 10:48 315 0 gusting 2 26.1
2017-Oct-18 10:43 355 0 gusting 2 26.1
2017-Oct-18 10:38 225 1 gusting 5 25.6
2017-Oct-18 10:33 318 1 gusting 4 26.1
2017-Oct-18 10:28 25.6
2017-Oct-18 10:23 075 2 gusting 5 25.6
2017-Oct-18 10:18 046 1 gusting 2 25.6
2017-Oct-18 10:13 317 1 gusting 2 25.6
2017-Oct-18 10:08 309 0 gusting 2 25.6
2017-Oct-18 10:03 182 1 gusting 2 25.0
2017-Oct-18 09:58 135 1 gusting 2 25.0
2017-Oct-18 09:53 358 0 gusting 2 25.0
2017-Oct-18 09:48 004 0 gusting 2 25.0
2017-Oct-18 09:43 355 0 gusting 2 24.4
2017-Oct-18 09:38 264 1 gusting 2 24.4
2017-Oct-18 09:33 306 0 gusting 2 24.4
2017-Oct-18 09:28 23.9
2017-Oct-18 09:23 258 1 gusting 2 23.9
2017-Oct-18 09:18 267 1 gusting 4 23.9
2017-Oct-18 09:13 244 1 gusting 4 23.9
2017-Oct-18 09:08 315 0 gusting 2 23.3
2017-Oct-18 09:03 229 0 gusting 2 22.8
2017-Oct-18 08:58 270 0 gusting 1 22.8
2017-Oct-18 08:53 193 0 gusting 2 22.2
2017-Oct-18 08:48 219 1 gusting 2 22.2
2017-Oct-18 08:43 358 0 gusting 2 22.2
2017-Oct-18 08:38 139 0 gusting 1 21.7
2017-Oct-18 08:33 315 0 gusting 1 21.7
2017-Oct-18 08:28 112 0 gusting 1 21.1
2017-Oct-18 08:23 270 0 gusting 1 20.6
2017-Oct-18 08:18 225 0 gusting 1 20.6
2017-Oct-18 08:13 230 20.0
2017-Oct-18 08:08 270 0 gusting 2 20.0
2017-Oct-18 08:03 174 0 gusting 0 18.9
2017-Oct-18 07:58 319 0 gusting 1 18.9
2017-Oct-18 07:53 319 0 gusting 2 18.3
2017-Oct-18 07:48 270 0 gusting 0 18.3
2017-Oct-18 07:43 315 0 gusting 0 17.8
2017-Oct-18 07:38 225 17.2
2017-Oct-18 07:33 225 0 gusting 1 17.2
2017-Oct-18 07:28 225 0 gusting 1 16.7
2017-Oct-18 07:23 229 16.1
2017-Oct-18 07:18 225 0 gusting 0 15.6
2017-Oct-18 07:13 232 0 gusting 0 15.6
2017-Oct-18 07:08 315 14.4
2017-Oct-18 07:03 311 13.9
2017-Oct-18 06:58 315 13.3
2017-Oct-18 06:53 275 12.8
2017-Oct-18 06:48 318 0 gusting 0 12.2
2017-Oct-18 06:43 231 11.7
2017-Oct-18 06:38 225 11.1
2017-Oct-18 06:33 225 10.6
2017-Oct-18 06:28 225 10.6
2017-Oct-18 06:23 225 10.0
2017-Oct-18 06:18 270 9.4
2017-Oct-18 06:13 270 8.9
2017-Oct-18 06:08 174 0 gusting 0 8.3
2017-Oct-18 06:03 090 8.3
2017-Oct-18 05:58 094 0 gusting 1 7.8
2017-Oct-18 05:53 090 0 gusting 1 7.8
2017-Oct-18 05:48 090 0 gusting 1 7.8
2017-Oct-18 05:43 135 0 gusting 1 7.8
2017-Oct-18 05:38 090 0 gusting 1 7.2
2017-Oct-18 05:33 133 0 gusting 2 7.2
2017-Oct-18 05:28 114 1 gusting 2 7.2
2017-Oct-18 05:23 090 0 gusting 1 7.2
2017-Oct-18 05:18 135 0 gusting 1 7.2
2017-Oct-18 05:13 135 0 gusting 1 7.2
2017-Oct-18 05:08 090 0 gusting 1 7.2
2017-Oct-18 05:03 135 0 gusting 1 7.2
2017-Oct-18 04:58 135 0 gusting 2 7.2
2017-Oct-18 04:53 090 1 gusting 2 7.2
2017-Oct-18 04:48 135 0 gusting 1 7.2
2017-Oct-18 04:43 180 7.2
2017-Oct-18 04:38 135 2 gusting 2 7.2
2017-Oct-18 04:33 090 1 gusting 2 7.2
2017-Oct-18 04:28 135 1 gusting 2 7.2
2017-Oct-18 04:23 135 1 gusting 2 7.2
2017-Oct-18 04:18 113 1 gusting 2 7.8
2017-Oct-18 04:13 135 0 gusting 2 7.8
2017-Oct-18 04:08 090 0 gusting 1 8.3
2017-Oct-18 04:03 090 0 gusting 1 8.3
2017-Oct-18 03:58 270 8.3
2017-Oct-18 03:53 270 8.3
2017-Oct-18 03:48 135 0 gusting 1 8.3
2017-Oct-18 03:43 090 8.3
2017-Oct-18 03:38 090 0 gusting 1 8.3
2017-Oct-18 03:33 135 0 gusting 1 8.3
2017-Oct-18 03:28 135 0 gusting 1 8.3
2017-Oct-18 03:23 135 0 gusting 2 8.3
2017-Oct-18 03:18 132 1 gusting 2 8.9
2017-Oct-18 03:13 270 8.3
2017-Oct-18 03:08 094 0 gusting 2 8.9
2017-Oct-18 03:03 090 1 gusting 2 8.9
2017-Oct-18 02:58 131 0 gusting 1 8.9
2017-Oct-18 02:53 135 0 gusting 1 8.9
2017-Oct-18 02:48 135 0 gusting 2 8.9
2017-Oct-18 02:43 135 0 gusting 2 8.9
2017-Oct-18 02:38 132 0 gusting 2 8.9
2017-Oct-18 02:33 090 1 gusting 2 8.9
2017-Oct-18 02:28 094 0 gusting 1 8.9
2017-Oct-18 02:23 135 8.9
2017-Oct-18 02:18 088 0 gusting 2 9.4
2017-Oct-18 02:13 090 9.4
2017-Oct-18 02:08 135 0 gusting 0 9.4
2017-Oct-18 02:03 135 0 gusting 0 9.4
2017-Oct-18 01:58 315 9.4
2017-Oct-18 01:53 092 0 gusting 2 9.4
2017-Oct-18 01:48 270 9.4
2017-Oct-18 01:43 270 9.4
2017-Oct-18 01:38 090 2 gusting 2 9.4
2017-Oct-18 01:33 132 1 gusting 2 9.4
2017-Oct-18 01:28 090 0 gusting 2 10.0
2017-Oct-18 01:23 135 0 gusting 1 10.0
2017-Oct-18 01:18 135 0 gusting 0 10.6
2017-Oct-18 01:13 135 0 gusting 1 10.6
2017-Oct-18 01:08 090 0 gusting 0 10.6
2017-Oct-18 01:03 315 10.6
2017-Oct-18 00:58 229 10.6
2017-Oct-18 00:53 135 0 gusting 2 10.6
2017-Oct-18 00:48 131 0 gusting 2 10.6
2017-Oct-18 00:43 135 1 gusting 2 10.0
2017-Oct-18 00:38 228 0 gusting 2 10.0
2017-Oct-18 00:33 132 2 gusting 2 10.0
2017-Oct-18 00:28 093 2 gusting 2 10.0
2017-Oct-18 00:23 132 2 gusting 2 10.0
2017-Oct-18 00:18 135 0 gusting 2 10.0
2017-Oct-18 00:13 090 1 gusting 2 10.6
2017-Oct-18 00:08 135 1 gusting 2 10.6
2017-Oct-18 00:03 135 1 gusting 2 10.6
2017-Oct-17 23:58 131 0 gusting 1 10.6
2017-Oct-17 23:53 090 0 gusting 1 10.6
2017-Oct-17 23:48 094 0 gusting 2 10.6
2017-Oct-17 23:43 130 0 gusting 1 10.6
2017-Oct-17 23:38 090 0 gusting 2 10.6
2017-Oct-17 23:33 135 0 gusting 1 11.1
2017-Oct-17 23:28 090 0 gusting 2 11.1
2017-Oct-17 23:23 135 1 gusting 2 10.6
2017-Oct-17 23:18 094 0 gusting 2 11.1
2017-Oct-17 23:13 090 1 gusting 2 10.6
2017-Oct-17 23:08 090 0 gusting 1 10.6
2017-Oct-17 23:03 090 1 gusting 2 10.6
2017-Oct-17 22:58 135 2 gusting 2 11.1
2017-Oct-17 22:53 132 2 gusting 2 11.1
2017-Oct-17 22:48 135 1 gusting 2 11.1
2017-Oct-17 22:43 135 0 gusting 2 11.1
2017-Oct-17 22:38 135 0 gusting 2 11.1
2017-Oct-17 22:33 135 1 gusting 2 11.1
2017-Oct-17 22:28 090 1 gusting 2 11.1
2017-Oct-17 22:23 090 0 gusting 2 11.7
2017-Oct-17 22:18 126 0 gusting 2 11.7
2017-Oct-17 22:13 135 1 gusting 2 11.7
2017-Oct-17 22:08 090 0 gusting 1 11.7
2017-Oct-17 22:03 090 0 gusting 2 11.7
2017-Oct-17 21:58 135 0 gusting 2 11.7
2017-Oct-17 21:53 090 0 gusting 2 11.7
2017-Oct-17 21:48 090 0 gusting 1 11.7
2017-Oct-17 21:43 131 0 gusting 2 12.2
2017-Oct-17 21:38 135 1 gusting 2 12.2
2017-Oct-17 21:33 094 0 gusting 2 12.8
2017-Oct-17 21:28 092 0 gusting 1 12.8
2017-Oct-17 21:23 131 0 gusting 1 12.8
2017-Oct-17 21:18 009 0 gusting 2 12.8
2017-Oct-17 21:13 093 1 gusting 2 13.3
2017-Oct-17 21:08 094 0 gusting 2 13.3
2017-Oct-17 21:03 090 1 gusting 2 13.3
2017-Oct-17 20:58 090 0 gusting 2 13.9
2017-Oct-17 20:53 093 1 gusting 2 13.3
2017-Oct-17 20:48 233 0 gusting 4 13.3
2017-Oct-17 20:43 090 2 gusting 2 13.3
2017-Oct-17 20:38 090 2 gusting 2 13.3
2017-Oct-17 20:33 115 1 gusting 2 13.9
2017-Oct-17 20:28 131 1 gusting 2 13.9
2017-Oct-17 20:23 090 0 gusting 2 13.9
2017-Oct-17 20:18 135 0 gusting 2 13.9
2017-Oct-17 20:13 090 1 gusting 2 13.9
2017-Oct-17 20:08 090 13.9
2017-Oct-17 20:03 090 13.9
2017-Oct-17 19:58 090 0 gusting 2 13.9
2017-Oct-17 19:53 137 0 gusting 2 14.4
2017-Oct-17 19:48 090 0 gusting 1 13.9
2017-Oct-17 19:43 315 0 gusting 2 13.9
2017-Oct-17 19:38 115 1 gusting 2 14.4
2017-Oct-17 19:33 131 1 gusting 2 15.0
2017-Oct-17 19:28 088 0 gusting 1 15.0
2017-Oct-17 19:23 094 0 gusting 2 14.4
2017-Oct-17 19:18 090 1 gusting 2 15.0
2017-Oct-17 19:13 090 1 gusting 2 15.6
2017-Oct-17 19:08 090 0 gusting 2 15.6
2017-Oct-17 19:03 090 1 gusting 2 15.6
2017-Oct-17 18:58 090 0 gusting 0 16.1
2017-Oct-17 18:53 315 16.7
2017-Oct-17 18:48 090 0 gusting 1 17.2
2017-Oct-17 18:43 312 0 gusting 0 17.8
2017-Oct-17 18:38 315 0 gusting 1 17.8
2017-Oct-17 18:33 345 0 gusting 1 17.8
2017-Oct-17 18:28 358 0 gusting 0 17.8
2017-Oct-17 18:23 17.8
2017-Oct-17 18:18 270 0 gusting 2 17.8
2017-Oct-17 18:13 054 1 gusting 2 17.8
2017-Oct-17 18:08 090 0 gusting 2 18.3
2017-Oct-17 18:03 18.3
2017-Oct-17 17:58 006 0 gusting 4 18.3
2017-Oct-17 17:53 051 2 gusting 4 18.3
2017-Oct-17 17:48 090 1 gusting 2 17.8
2017-Oct-17 17:43 045 0 gusting 2 17.8
2017-Oct-17 17:38 003 0 gusting 2 17.8
2017-Oct-17 17:33 090 1 gusting 2 18.3
2017-Oct-17 17:28 18.3
2017-Oct-17 17:23 049 0 gusting 2 17.8
2017-Oct-17 17:18 090 2 gusting 2 18.3
2017-Oct-17 17:13 009 2 gusting 2 18.9
2017-Oct-17 17:08 131 0 gusting 1 19.4
2017-Oct-17 17:03 090 0 gusting 1 20.0
2017-Oct-17 16:58 20.0
2017-Oct-17 16:53 353 0 gusting 0 19.4
2017-Oct-17 16:48 270 20.0
2017-Oct-17 16:43 141 0 gusting 1 20.0
2017-Oct-17 16:38 135 0 gusting 1 21.1
2017-Oct-17 16:33 319 0 gusting 1 21.7
2017-Oct-17 16:28 135 0 gusting 1 22.2
2017-Oct-17 16:23 315 0 gusting 4 22.2
2017-Oct-17 16:18 003 1 gusting 4 22.8
2017-Oct-17 16:13 22.8
2017-Oct-17 16:08 225 0 gusting 4 23.3
2017-Oct-17 16:03 23.3
2017-Oct-17 15:58 315 0 gusting 2 23.9
2017-Oct-17 15:53 355 0 gusting 2 23.9
2017-Oct-17 15:48 24.4
2017-Oct-17 15:43 009 0 gusting 2 24.4
2017-Oct-17 15:38 25.0
2017-Oct-17 15:33 25.0
2017-Oct-17 15:28 315 2 gusting 5 25.0
2017-Oct-17 15:23 318 0 gusting 2 25.6
2017-Oct-17 15:18 352 1 gusting 4 25.6
2017-Oct-17 15:13 357 1 gusting 4 25.6
2017-Oct-17 15:08 279 1 gusting 5 25.6
2017-Oct-17 15:03 26.1
2017-Oct-17 14:58 26.1
2017-Oct-17 14:53 356 1 gusting 5 26.1
2017-Oct-17 14:48 040 2 gusting 5 26.7
2017-Oct-17 14:43 26.7
2017-Oct-17 14:38 037 2 gusting 5 26.7
2017-Oct-17 14:33 315 1 gusting 5 27.2
2017-Oct-17 14:28 095 1 gusting 6 27.2
2017-Oct-17 14:23 354 2 gusting 5 27.2
2017-Oct-17 14:18 356 1 gusting 5 27.2
2017-Oct-17 14:13 045 2 gusting 5 27.2
2017-Oct-17 14:08 006 1 gusting 6 27.2
2017-Oct-17 14:03 352 2 gusting 6 27.2
2017-Oct-17 13:58 086 2 gusting 6 27.8
2017-Oct-17 13:53 27.8
2017-Oct-17 13:48 050 2 gusting 5 27.8
2017-Oct-17 13:43 007 2 gusting 5 27.8
2017-Oct-17 13:38 002 1 gusting 5 27.8
2017-Oct-17 13:33 077 1 gusting 6 27.8
2017-Oct-17 13:28 040 2 gusting 6 28.3
2017-Oct-17 13:23 28.3
2017-Oct-17 13:18 083 2 gusting 6 28.3
2017-Oct-17 13:13 353 1 gusting 5 28.3
2017-Oct-17 13:08 003 2 gusting 5 28.3
2017-Oct-17 13:03 28.3
2017-Oct-17 12:58 303 1 gusting 5 28.3
2017-Oct-17 12:53 358 1 gusting 5 28.3
2017-Oct-17 12:48 095 0 gusting 6 28.3
2017-Oct-17 12:43 356 2 gusting 5 28.3
2017-Oct-17 12:38 009 2 gusting 5 28.3
2017-Oct-17 12:33 28.3
2017-Oct-17 12:28 042 1 gusting 5 28.3
2017-Oct-17 12:23 006 3 gusting 6 28.3
2017-Oct-17 12:18 249 2 gusting 5 28.3
2017-Oct-17 12:13 28.3
2017-Oct-17 12:08 28.3
2017-Oct-17 12:03 087 1 gusting 6 28.3
2017-Oct-17 11:58 357 2 gusting 5 28.3
2017-Oct-17 11:53 276 0 gusting 2 28.3
2017-Oct-17 11:48 141 0 gusting 5 27.8
2017-Oct-17 11:43 27.8
2017-Oct-17 11:38 358 0 gusting 2 27.8
2017-Oct-17 11:33 265 0 gusting 5 27.2
2017-Oct-17 11:28 004 1 gusting 4 27.2
2017-Oct-17 11:23 006 2 gusting 5 27.2
2017-Oct-17 11:18 324 2 gusting 5 27.2
2017-Oct-17 11:13 282 0 gusting 5 27.2
2017-Oct-17 11:08 356 0 gusting 4 27.2
2017-Oct-17 11:03 298 0 gusting 2 27.2
2017-Oct-17 10:58 315 0 gusting 2 27.2
2017-Oct-17 10:53 319 0 gusting 2 26.7
2017-Oct-17 10:48 112 2 gusting 2 26.7
2017-Oct-17 10:43 045 0 gusting 2 26.7
2017-Oct-17 10:38 356 0 gusting 2 26.7
2017-Oct-17 10:33 323 0 gusting 2 26.1
2017-Oct-17 10:28 096 0 gusting 2 26.1
2017-Oct-17 10:23 26.1
2017-Oct-17 10:18 081 1 gusting 2 26.1
2017-Oct-17 10:13 313 0 gusting 2 26.1
2017-Oct-17 10:08 288 0 gusting 2 26.1
2017-Oct-17 10:03 186 1 gusting 2 25.6
2017-Oct-17 09:58 306 0 gusting 2 26.1
2017-Oct-17 09:53 312 0 gusting 2 25.6
2017-Oct-17 09:48 227 0 gusting 2 25.6
2017-Oct-17 09:43 229 0 gusting 2 25.0
2017-Oct-17 09:38 001 0 gusting 2 25.0
2017-Oct-17 09:33 324 0 gusting 2 25.0
2017-Oct-17 09:28 266 0 gusting 0 24.4
2017-Oct-17 09:23 24.4
2017-Oct-17 09:18 225 0 gusting 1 23.9
2017-Oct-17 09:13 315 0 gusting 2 23.9
2017-Oct-17 09:08 006 0 gusting 0 23.9
2017-Oct-17 09:03 315 0 gusting 1 23.3
2017-Oct-17 08:58 270 0 gusting 1 22.8
2017-Oct-17 08:53 228 0 gusting 1 22.8
2017-Oct-17 08:48 180 0 gusting 1 22.2
2017-Oct-17 08:43 315 0 gusting 1 21.7
2017-Oct-17 08:38 045 0 gusting 2 21.7
2017-Oct-17 08:33 21.1
2017-Oct-17 08:28 21.1
2017-Oct-17 08:23 261 0 gusting 1 21.1
2017-Oct-17 08:18 229 20.6
2017-Oct-17 08:13 270 0 gusting 1 20.0
2017-Oct-17 08:08 231 0 gusting 1 19.4
2017-Oct-17 08:03 225 0 gusting 1 19.4
2017-Oct-17 07:58 225 0 gusting 1 18.9
2017-Oct-17 07:53 315 0 gusting 2 18.9
2017-Oct-17 07:48 312 0 gusting 1 18.3
2017-Oct-17 07:43 270 0 gusting 2 18.3
2017-Oct-17 07:38 266 0 gusting 1 17.8
2017-Oct-17 07:33 266 0 gusting 1 17.2
2017-Oct-17 07:28 270 0 gusting 1 17.2
2017-Oct-17 07:23 231 0 gusting 1 16.7
2017-Oct-17 07:18 266 0 gusting 0 16.7
2017-Oct-17 07:13 186 0 gusting 0 16.1
2017-Oct-17 07:08 270 15.6
2017-Oct-17 07:03 270 15.6
2017-Oct-17 06:58 229 14.4
2017-Oct-17 06:53 141 0 gusting 1 13.9
2017-Oct-17 06:48 225 0 gusting 2 13.3
2017-Oct-17 06:43 230 0 gusting 4 13.3
2017-Oct-17 06:38 229 1 gusting 2 13.3
2017-Oct-17 06:33 228 0 gusting 1 12.8
2017-Oct-17 06:28 320 0 gusting 1 12.2
2017-Oct-17 06:23 178 0 gusting 1 11.7
2017-Oct-17 06:18 229 11.1
2017-Oct-17 06:13 315 10.0
2017-Oct-17 06:08 189 0 gusting 0 9.4
2017-Oct-17 06:03 085 8.3
2017-Oct-17 05:58 315 8.3
2017-Oct-17 05:53 096 1 gusting 2 8.3
2017-Oct-17 05:48 135 0 gusting 1 8.3
2017-Oct-17 05:43 135 0 gusting 2 8.3
2017-Oct-17 05:38 092 0 gusting 1 8.3
2017-Oct-17 05:33 135 0 gusting 1 8.3
2017-Oct-17 05:28 135 0 gusting 2 7.8
2017-Oct-17 05:23 133 0 gusting 2 7.8
2017-Oct-17 05:18 135 1 gusting 2 8.3
2017-Oct-17 05:13 077 0 gusting 1 8.3
2017-Oct-17 05:08 135 0 gusting 2 8.3
2017-Oct-17 05:03 133 0 gusting 2 7.8